{"data":{"norad_id":43871,"intl_designator":"2018-108A","name":"HONGYUN 1","alt_names":[],"object_type":"PAYLOAD","status":"ACTIVE","operator":null,"country":"PRC","launch_date":"2018-12-21","launch_site_code":"JSC","launch_vehicle":null,"mission":null,"orbit_class":"UNKNOWN","rcs_meters":null,"size_class":null,"mass_kg":null,"dimensions":null,"purposes":[],"wikipedia_slug":null,"has_3d_model":false,"image_url":null,"decayed_at":null,"tle_current":{"epoch":"2026-09-20T05:27:25.124832Z","epoch_age_seconds":81847,"freshness":"FRESH","line1":"1 43871U 18108A   26263.22737413  .00000013  00000+0  87483-4 0  9996","line2":"2 43871  99.7456 283.2124 0011392 183.5841 176.5214 13.51561831381926","mean_motion":13.51561831,"eccentricity":0.0011392,"inclination_deg":99.7456,"raan_deg":283.2124,"arg_perigee_deg":183.5841,"mean_anomaly_deg":176.5214,"bstar":8.7483e-5,"rev_number":38192,"period_min":106.54340533829,"perigee_km":1058.0368062807,"apogee_km":1074.998707679,"semimajor_km":7444.6547569799,"source":"CELESTRAK","updated_at":"2026-09-20T09:00:14.413490Z"}}}